Columbus, MS

11:27 PM CST on January 23, 2017 (GMT -0600)
Golden Triangle Regional

Weather History for KGTR - September, 2012

Change the Weather History Date:

Friday, September 14, 2012

  Actual Average Record
Temperature  
Mean Temperature 74 °F -  
Max Temperature 87 °F 85 °F 96 °F (2016)
Min Temperature 62 °F 62 °F 48 °F (2015)
Cooling Degree Days 10    
Growing Degree Days 24 (Base 50)    
Moisture  
Dew Point 62 °F    
Average Humidity 73    
Maximum Humidity 94    
Minimum Humidity 43    
Precipitation  
Precipitation 0.00 in - - ()
Sea Level Pressure  
Sea Level Pressure 30.18 in    
Wind  
Wind Speed 3 mph (ENE)    
Max Wind Speed 8 mph    
Max Gust Speed -    
Visibility 10 miles    
Events      
Averages and records for this station are not official NWS values.
T = Trace of Precipitation, MM = Missing Value Source: NWS Daily Summary

Daily Weather History Graph

Daily Weather History Graph

Search for Another Location

Airport or City:

Trip Planner

Search our weather history database for the weather conditions in past years. The results will help you decide how hot, cold, wet, or windy it might be!

Date:

Astronomy

Sep. 14, 2012 Rise Set
Actual Time 6:37 AM CDT 7:01 PM CDT
Civil Twilight 6:12 AM CDT 7:26 PM CDT
Nautical Twilight 5:43 AM CDT 7:55 PM CDT
Astronomical Twilight 5:13 AM CDT 8:25 PM CDT
Moon 5:04 AM CDT (9/14) 5:57 PM CDT (9/14)
Length of Visible Light 13h 13m
Length of Day
12h 23m
Waning Crescent, 2% of the Moon is Illuminated
Sep 14
Waning Crescent
Sep 15
New
Sep 22
First Quarter
Sep 29
Full
Oct 8
Last Quarter

Hourly Weather History & Observations

Time (CDT) Temp. Heat Index Dew Point Humidity Pressure Visibility Wind Dir Wind Speed Gust Speed Precip Events Conditions
12:15 AM 71.6 °F - 62.6 °F 73% 30.21 in 10.0 mi SE 5.8 mph - N/A   Mostly Cloudy
12:35 AM 71.6 °F - 62.6 °F 73% 30.21 in 10.0 mi Calm Calm - N/A   Clear
12:55 AM 71.6 °F - 62.6 °F 73% 30.21 in 10.0 mi Calm Calm - N/A   Scattered Clouds
1:15 AM 69.8 °F - 62.6 °F 78% 30.21 in 10.0 mi Calm Calm - N/A   Mostly Cloudy
1:55 AM 68.0 °F - 62.6 °F 83% 30.21 in 10.0 mi Calm Calm - N/A   Partly Cloudy
2:15 AM 69.8 °F - 62.6 °F 78% 30.20 in 10.0 mi East 4.6 mph - N/A   Clear
2:35 AM 66.2 °F - 62.6 °F 88% 30.19 in 10.0 mi East 5.8 mph - N/A   Partly Cloudy
2:55 AM 68.0 °F - 62.6 °F 83% 30.19 in 10.0 mi East 5.8 mph - N/A   Clear
3:15 AM 66.2 °F - 62.6 °F 88% 30.19 in 10.0 mi Calm Calm - N/A   Mostly Cloudy
3:35 AM 66.2 °F - 60.8 °F 83% 30.18 in 10.0 mi Calm Calm - N/A   Partly Cloudy
3:55 AM 64.4 °F - 60.8 °F 88% 30.18 in 10.0 mi Calm Calm - N/A   Clear
4:15 AM 64.4 °F - 60.8 °F 88% 30.18 in 10.0 mi Calm Calm - N/A   Clear
4:35 AM 64.4 °F - 60.8 °F 88% 30.18 in 10.0 mi ENE 3.5 mph - N/A   Clear
4:55 AM 64.4 °F - 60.8 °F 88% 30.18 in 10.0 mi ENE 4.6 mph - N/A   Clear
5:15 AM 64.4 °F - 60.8 °F 88% 30.19 in 9.0 mi Calm Calm - N/A   Clear
5:35 AM 64.4 °F - 60.8 °F 88% 30.19 in 8.0 mi ENE 3.5 mph - N/A   Clear
5:50 AM 62.6 °F - 59.0 °F 88% 30.19 in 7.0 mi Calm Calm - N/A   Clear
6:55 AM 62.6 °F - 60.8 °F 94% 30.21 in 7.0 mi Calm Calm - N/A   Clear
7:55 AM 69.8 °F - 64.4 °F 83% 30.22 in 9.0 mi Calm Calm - N/A   Clear
9:50 AM 75.2 °F - 64.4 °F 69% 30.22 in 10.0 mi East 6.9 mph - N/A   Partly Cloudy
10:50 AM 78.8 °F - 64.4 °F 61% 30.22 in 10.0 mi East 6.9 mph - N/A   Partly Cloudy
11:50 AM 82.4 °F 83.9 °F 64.4 °F 54% 30.21 in 10.0 mi Calm Calm - N/A   Partly Cloudy
12:50 PM 82.4 °F 83.4 °F 62.6 °F 51% 30.20 in 10.0 mi Calm Calm - N/A   Partly Cloudy
1:45 PM 84.2 °F 85.0 °F 62.6 °F 48% 30.19 in 10.0 mi Calm Calm - N/A   Scattered Clouds
2:50 PM 87.8 °F 88.5 °F 62.6 °F 43% 30.17 in 10.0 mi East 4.6 mph - N/A   Mostly Cloudy
3:45 PM 82.4 °F 82.5 °F 59.0 °F 45% 30.15 in 10.0 mi East 5.8 mph - N/A   Mostly Cloudy
4:45 PM 82.4 °F 82.9 °F 60.8 °F 48% 30.14 in 10.0 mi NE 8.1 mph - N/A   Mostly Cloudy
5:45 PM 82.4 °F 82.9 °F 60.8 °F 48% 30.14 in 10.0 mi East 5.8 mph - N/A   Clear
6:45 PM 78.8 °F - 62.6 °F 57% 30.14 in 10.0 mi ENE 4.6 mph - N/A   Clear
7:45 PM 77.0 °F - 60.8 °F 57% 30.15 in 10.0 mi NE 4.6 mph - N/A   Clear
7:55 PM 75.2 °F - 60.8 °F 61% 30.15 in 10.0 mi NE 4.6 mph - N/A   Clear
8:15 PM 73.4 °F - 60.8 °F 65% 30.16 in 10.0 mi NE 3.5 mph - N/A   Clear
8:35 PM 71.6 °F - 60.8 °F 69% 30.16 in 10.0 mi North 4.6 mph - N/A   Clear
8:55 PM 71.6 °F - 60.8 °F 69% 30.16 in 10.0 mi North 4.6 mph - N/A   Clear
9:15 PM 71.6 °F - 62.6 °F 73% 30.17 in 10.0 mi North 4.6 mph - N/A   Clear
9:35 PM 71.6 °F - 62.6 °F 73% 30.17 in 10.0 mi Calm Calm - N/A   Clear
9:55 PM 66.2 °F - 60.8 °F 83% 30.18 in 10.0 mi Calm Calm - N/A   Clear
10:15 PM 69.8 °F - 62.6 °F 78% 30.18 in 10.0 mi Calm Calm - N/A   Clear
10:35 PM 68.0 °F - 62.6 °F 83% 30.18 in 10.0 mi Calm Calm - N/A   Clear
10:55 PM 66.2 °F - 60.8 °F 83% 30.19 in 10.0 mi Calm Calm - N/A   Clear
11:15 PM 66.2 °F - 60.8 °F 83% 30.19 in 10.0 mi Calm Calm - N/A   Clear
11:35 PM 66.2 °F - 60.8 °F 83% 30.19 in 6.0 mi Calm Calm - N/A   Clear
11:55 PM 66.2 °F - 60.8 °F 83% 30.19 in 10.0 mi Calm Calm - N/A   Clear